OPS 4682 DEB, 18691

Orbit data source: Space-Track

OPS 4682 DEB, 18691 is space debris in LEO originally from a launch on Sat, 03 Apr 1965 UTC launched from the Air Force Western Test Range (AFWTR). Debris objects in space refer to the collection of defunct objects orbiting the Earth. Examples of debris include non-operational satellites, rocket bodies, and fragments generated from explosions, collisions, or faulty payload assembly.

Loading next visibility...
Identifier
18691, 1965-027AJ
Orbit
LEO
Country
Flag of USUS
Related business
Manufacturer
Unknown
Mission
Spacecraft
Bus & Motor
Unknown
Mass
Unknown
Launch date (UTC)
1965-04-03 (61 years ago)
Launch vehicle
Unknown
Launch site
Air Force Western Test Range (AFWTR)
Object type
Payload
Rocket body
Debris
Shape & HBR
Unknown shape, 0.1 m
Radar Cross Section
Medium (>0.1 m² and <1 m²)

Expand to show TLE details & history
Last TLE update: 1 day ago

TLE from 1 day ago
0 OPS 4682 DEB
1 18691U 65027AJ  26264.25636890  .00000589  00000-0  20224-2 0  9998
2 18691  90.2309 358.7460 0025978 208.7469 178.1766 12.96791290837549
Epoch: 2026-09-21T06:09Z
TLE epoch observation values (Epoch: 2026-09-21T06:09:10.272Z)
Latitude
26.96617°
Longitude
-93.8025°
Altitude
1,297.847 km
Speed
7.2 km/s
True Right ascension
23h 54m 30s
True Declination
26° 50' 14"
Sunlit
Object was in full shadow at epoch
Visualization orbit readout
Latitude
Unknown
Longitude
Unknown
Altitude
Unknown
Speed
Unknown
Apparent Right ascension
Unknown
Apparent Declination
Unknown
Sunlit
N/A
Visualization observer readout
Local Sidereal Time
23:43:29
Azimuth
Unknown
Elevation
Unknown
Doppler factor
Unknown
Orbital elements
Apogee altitude
1,291.689 km
Perigee altitude
1,251.943 km
Semi-major axis
7,649.953 km
Eccentricity
0.0026
Inclination
90.2309°
RAAN
358.746°
Arg. of periapsis
208.7469°
True anomaly
178.18604°
Mean anomaly
178.1766°
Eccentric anomaly
178.18132°
Mean motion
3.24381 °/min
Orbital period
110.98 mins
BSTAR
0.0020224
Loading maneuver chart data...
Computing Atmospheric mass density...
Loading historical data...
Loading historical data...
Loading historical data...
Loading historical data...
Loading historical data...
Loading historical data...
Loading historical data...

Documentation

Showing up to 5 results
|